620  
SXUS52 KTAE 160518  
OSOTAE  
OSOTAE  
NORTH FLORIDA/SOUTH ALABAMA/SOUTHWEST GEORGIA WEATHER ROUNDUP  
NATIONAL WEATHER SERVICE TALLAHASSEE FLORIDA  
1200 AM EST SAT DEC 16 2017  
 
NOTE: "FAIR" INDICATES FEW OR NO CLOUDS BELOW 12,000 FEET WITH NO  
SIGNIFICANT WEATHER AND/OR OBSTRUCTIONS TO VISIBILITY.  
 
!FLZ017-115-028-034-025-160600   
..NORTH FLORIDA
 
 
 
CITY SKY/WX TMP DP RH WIND PRES REMARKS  
TALLAHASSEE CLOUDY 49 35 58 N8 30.22R  
APALACHICOLA MOCLDY 51 40 65 NE8 30.21R  
PERRY CLOUDY 53 39 60 N3 30.21S  
CROSS CITY CLOUDY 55 47 72 NW3 30.23R  
JACKSONVILLE CLOUDY 56 42 59 NW6 30.17S  

 
 
!FLZ112-006-005-002-011-160600   
..FLORIDA PANHANDLE
 
 
 
CITY SKY/WX TMP DP RH WIND PRES REMARKS  
MARIANNA PTCLDY 44 30 57 N5 30.23S WCI 42  
BONIFAY NOT AVBL  
PANAMA CITY NW FAIR 44 33 65 NW6 30.24R WCI 41  
TYNDALL AFB MOCLDY 47 34 61 N9 30.24R WCI 43  
TYND DRONE APT CLOUDY 47 35 63 N14 30.22S WCI 41  
DE FUNIAK SPR FAIR 41 31 68 N6 30.24S WCI 37  
EGLIN AFB CLOUDY 43 30 61 N6 30.24R WCI 39  
DESTIN PTCLDY 47 31 53 N8 30.24S WCI 43  
HURLBURT CLOUDY 43 32 65 N7 30.23R WCI 39  
CRESTVIEW MOCLDY 41 31 67 N5 30.27R WCI 38  
PENSACOLA PTCLDY 44 31 60 N12 30.25S WCI 38  

 
 
!ALZ063-066-160600   
..SOUTH ALABAMA
 
 
 
CITY SKY/WX TMP DP RH WIND PRES REMARKS  
DOTHAN CLOUDY 40 32 73 N6 30.27S WCI 36  
OZARK CAIRNS MOCLDY 40 28 61 N7 30.24S WCI 36  
FT RUCKER HELI MOCLDY 39 30 70 N5 30.24F WCI 36  
RUCKER HELI 3 N/A 39 29 68 N6 30.24S WCI 35  
RUCKER HELI 2 MOCLDY 40 30 66 N6 30.23F WCI 36  
FLORALA APT MOCLDY 39 30 70 N3 30.27R  
ANDALUSIA MOCLDY 42 29 59 N3 30.24S  
TROY CLOUDY 32 28 85 N3 30.25F  
EUFALA FAIR 35 30 82 CALM 30.24F  
MOBILE PTCLDY 41 31 67 N7 30.27S WCI 36  

 
 
!GAZ120>161-160600   
..SOUTHWEST AND SOUTH CENTRAL GEORGIA
 
 
 
CITY SKY/WX TMP DP RH WIND PRES REMARKS  
THOMASVILLE CLOUDY 45 34 65 N7 30.22F WCI 41  
BAINBRIDGE PTCLDY 45 34 65 N6 30.24S WCI 41  
MOODY AFB CLOUDY 47 34 60 N6 30.19S WCI 44  
VALDOSTA CLOUDY 48 35 60 VRB3 30.21S  
MOULTRIE CLOUDY 45 32 61 N7 30.23R WCI 41  
BLAKELY NOT AVBL  
ALBANY MOCLDY 42 30 62 CALM 30.25F  
TIFTON MOCLDY 44 32 63 N8 30.21F WCI 39  
FITZGERALD FAIR 45 31 58 NW6 30.24F WCI 42  
CORDELE FAIR 44 28 55 CALM 30.25S  
AMERICUS FAIR 36 25 64 CALM 30.26S  
HOMERVILLE MOCLDY 46 36 66 N5 30.21S WCI 44  

 
 
!GMZ750-755-770-775-160600   
..COASTAL AND BUOY OBS
 
 
 
STATION/POSITION TIME TEMP WIND PRES VSBY WAVE  
AIR SEA DIR/SP/G HT/PER  
(UTC) (F) (DEG/KT/KT) (MB) (MI) (FT/S)  
KEATON BEACH 0500 54 350/ 5/ 7 1022.1R  
CEDAR KEY 0500 59 30/ 3/ 4 1022.1F  
C TOWER 0500 55 20/ 11/ 12 1022.7F  
APALACHICOLA BUO NOT AVBL  
PANAMA CITY BUOY 0450 62 74 30/ 10/ 14 1021.9F 3/ 6  
MOBILE BUOY 0500 56 71 20/ 12/ 17 1024.0  
ORANGE BCH AL BU NOT AVBL  

 
 
 
CLICK HERE TO GO TO PREVIOUS BULLETINS.

The Nexlab FL Page
The Nexlab GA Page
The Nexlab AL Page Main Text Page